Weather History for KGTB - March, 2013

Change the Weather History Date:

Friday, March 1, 2013

  Actual Average Record
Temperature  
Mean Temperature 28 °F -  
Max Temperature 32 °F 31 °F 51 °F (2004)
Min Temperature 22 °F 14 °F 1 °F (2006)
Degree Days  
Heating Degree Days 38    
Moisture  
Dew Point 29 °F    
Average Humidity 96    
Maximum Humidity 100    
Minimum Humidity 80    
Precipitation  
Precipitation 0.02 in - - ()
Sea Level Pressure  
Sea Level Pressure 29.76 in    
Wind  
Wind Speed 5 mph (NNW)    
Max Wind Speed 14 mph    
Max Gust Speed 18 mph    
Visibility 6 miles    
Events Fog , Snow    
Averages and records for this station are not official NWS values.
T = Trace of Precipitation, MM = Missing Value Source: NWS Daily Summary

Daily Weather History Graph

Daily Weather History Graph

Search for Another Location

Airport or City:

Trip Planner

Search our weather history database for the weather conditions in past years. The results will help you decide how hot, cold, wet, or windy it might be!

Date:

Astronomy

Mar. 01, 2013 Rise Set
Actual Time 6:39 AM EST 5:51 PM EST
Civil Twilight 6:10 AM EST 6:20 PM EST
Nautical Twilight 5:37 AM EST 6:53 PM EST
Astronomical Twilight 5:03 AM EST 7:27 PM EST
Moon 10:34 PM EST (3/1) 8:14 AM EST (3/1)
Length of Visible Light 12h 10m
Length of Day
11h 12m
Waning Gibbous, 83% of the Moon is Illuminated
Mar 1
Waning Gibbous
Mar 4
Last Quarter
Mar 11
New
Mar 19
First Quarter
Mar 27
Full

Hourly Weather History & Observations

Time (EST) Temp. Windchill Dew Point Humidity Pressure Visibility Wind Dir Wind Speed Gust Speed Precip Events Conditions
12:32 AM 32.0 °F - 32.0 °F 100% 29.68 in 5.0 mi Calm Calm - N/A   Overcast
12:55 AM 31.1 °F - 31.1 °F 100% 29.68 in 3.0 mi Calm Calm - 0.00 in   Overcast
1:04 AM 32.0 °F 28.7 °F 32.0 °F 100% 29.68 in 2.5 mi NW 3.5 mph - N/A   Overcast
1:11 AM 32.0 °F 28.7 °F 32.0 °F 100% 29.69 in 2.0 mi WNW 3.5 mph - N/A   Overcast
1:14 AM 32.0 °F - 32.0 °F 100% 29.68 in 1.8 mi Calm Calm - N/A   Overcast
1:16 AM 32.0 °F - 32.0 °F 100% 29.68 in 1.8 mi Calm Calm - N/A   Overcast
1:21 AM 32.0 °F - 32.0 °F 100% 29.68 in 1.2 mi Calm Calm - N/A   Overcast
1:26 AM 32.0 °F 28.7 °F 32.0 °F 100% 29.68 in 1.0 mi WNW 3.5 mph - N/A   Overcast
1:29 AM 32.0 °F 28.7 °F 32.0 °F 100% 29.69 in 1.0 mi WNW 3.5 mph - N/A   Overcast
1:43 AM 32.0 °F 28.7 °F 32.0 °F 100% 29.69 in 1.0 mi WNW 3.5 mph - N/A Snow Light Snow
1:47 AM 32.0 °F 28.7 °F 32.0 °F 100% 29.69 in 1.2 mi WNW 3.5 mph - N/A Snow Light Snow
1:55 AM 31.1 °F 27.7 °F 31.1 °F 100% 29.69 in 1.2 mi NW 3.5 mph - 0.00 in Snow Light Snow
1:57 AM 32.0 °F 28.7 °F 32.0 °F 100% 29.69 in 1.5 mi WNW 3.5 mph - N/A Snow Light Snow
2:05 AM 32.0 °F 28.7 °F 32.0 °F 100% 29.69 in 2.0 mi West 3.5 mph - N/A Snow Light Snow
2:12 AM 32.0 °F 28.7 °F 32.0 °F 100% 29.69 in 2.5 mi WNW 3.5 mph - N/A Snow Light Snow
2:15 AM 32.0 °F 28.7 °F 32.0 °F 100% 29.69 in 2.5 mi Variable 3.5 mph - N/A Snow Light Snow
2:28 AM 32.0 °F 27.5 °F 32.0 °F 100% 29.69 in 3.0 mi WNW 4.6 mph - N/A Snow Light Snow
2:37 AM 32.0 °F 28.7 °F 32.0 °F 100% 29.69 in 2.5 mi NW 3.5 mph - N/A   Overcast
2:43 AM 32.0 °F 27.5 °F 32.0 °F 100% 29.69 in 2.0 mi NW 4.6 mph - N/A   Overcast
2:44 AM 32.0 °F 27.5 °F 32.0 °F 100% 29.69 in 2.0 mi NW 4.6 mph - N/A   Overcast
2:48 AM 32.0 °F 27.5 °F 32.0 °F 100% 29.69 in 1.8 mi NW 4.6 mph - N/A   Overcast
2:54 AM 32.0 °F 28.7 °F 32.0 °F 100% 29.69 in 2.0 mi NW 3.5 mph - N/A   Overcast
2:55 AM 31.1 °F 27.7 °F 31.1 °F 100% 29.69 in 2.0 mi NNW 3.5 mph - 0.00 in   Overcast
2:58 AM 32.0 °F 26.4 °F 32.0 °F 100% 29.69 in 2.5 mi NNW 5.8 mph - N/A   Overcast
3:01 AM 32.0 °F 26.4 °F 32.0 °F 100% 29.69 in 3.0 mi NNW 5.8 mph - N/A   Overcast
3:02 AM 32.0 °F 27.5 °F 32.0 °F 100% 29.69 in 3.0 mi NNW 4.6 mph - N/A   Overcast
3:10 AM 32.0 °F 24.8 °F 32.0 °F 100% 29.69 in 2.5 mi NNW 8.1 mph - N/A   Overcast
3:12 AM 32.0 °F 25.6 °F 32.0 °F 100% 29.69 in 2.0 mi NNW 6.9 mph - N/A   Overcast
3:14 AM 32.0 °F 27.5 °F 32.0 °F 100% 29.69 in 1.8 mi NNW 4.6 mph - N/A   Overcast
3:17 AM 32.0 °F 26.4 °F 32.0 °F 100% 29.69 in 1.2 mi NNW 5.8 mph - N/A   Overcast
3:18 AM 32.0 °F 26.4 °F 32.0 °F 100% 29.69 in 1.2 mi North 5.8 mph - N/A   Overcast
3:19 AM 32.0 °F 27.5 °F 32.0 °F 100% 29.69 in 1.2 mi North 4.6 mph - N/A   Overcast
3:20 AM 32.0 °F 26.4 °F 32.0 °F 100% 29.69 in 1.0 mi North 5.8 mph - N/A   Overcast
3:24 AM 32.0 °F 27.5 °F 32.0 °F 100% 29.69 in 1.0 mi North 4.6 mph - N/A   Overcast
3:25 AM 32.0 °F 27.5 °F 32.0 °F 100% 29.69 in 1.0 mi North 4.6 mph - N/A   Overcast
3:28 AM 32.0 °F 25.6 °F 32.0 °F 100% 29.69 in 1.2 mi North 6.9 mph - N/A   Overcast
3:30 AM 30.2 °F 23.4 °F 30.2 °F 100% 29.69 in 1.5 mi Variable 6.9 mph - N/A   Overcast
3:31 AM 30.2 °F 22.6 °F 30.2 °F 100% 29.69 in 1.8 mi North 8.1 mph - N/A   Overcast
3:32 AM 30.2 °F 23.4 °F 30.2 °F 100% 29.69 in 2.0 mi North 6.9 mph - N/A   Overcast
3:33 AM 30.2 °F 23.4 °F 30.2 °F 100% 29.69 in 2.5 mi NNW 6.9 mph - N/A   Overcast
3:34 AM 30.2 °F 24.3 °F 30.2 °F 100% 29.69 in 3.0 mi Variable 5.8 mph - N/A   Overcast
3:38 AM 30.2 °F 25.4 °F 30.2 °F 100% 29.69 in 7.0 mi North 4.6 mph - N/A   Overcast
3:42 AM 30.2 °F 25.4 °F 30.2 °F 100% 29.69 in 8.0 mi North 4.6 mph - N/A   Overcast
3:43 AM 30.2 °F 25.4 °F 30.2 °F 100% 29.69 in 8.0 mi North 4.6 mph - N/A   Overcast
3:55 AM 30.9 °F 26.2 °F 30.9 °F 100% 29.70 in 10.0 mi North 4.6 mph - 0.00 in Snow Light Snow
4:03 AM 30.2 °F 23.4 °F 30.2 °F 100% 29.70 in 8.0 mi North 6.9 mph - N/A Snow Light Snow
4:55 AM 30.9 °F 24.3 °F 30.9 °F 100% 29.72 in 8.0 mi North 6.9 mph - 0.00 in Snow Light Snow
5:25 AM 30.2 °F 25.4 °F 30.2 °F 100% 29.72 in 10.0 mi North 4.6 mph - N/A   Overcast
5:36 AM 30.2 °F 23.4 °F 30.2 °F 100% 29.73 in 7.0 mi North 6.9 mph - N/A Snow Light Snow
5:44 AM 30.2 °F 25.4 °F 30.2 °F 100% 29.73 in 6.0 mi North 4.6 mph - N/A Snow Light Snow
5:51 AM 30.2 °F 24.3 °F 30.2 °F 100% 29.73 in 6.0 mi North 5.8 mph - N/A Snow Light Snow
5:55 AM 31.1 °F 26.4 °F 31.1 °F 100% 29.73 in 6.0 mi North 4.6 mph - 0.00 in Snow Light Snow
6:00 AM 30.2 °F 24.3 °F 30.2 °F 100% 29.73 in 5.0 mi North 5.8 mph - N/A Snow Light Snow
6:55 AM 30.9 °F 25.2 °F 30.9 °F 100% 29.75 in 1.0 mi NNW 5.8 mph - 0.00 in Snow Light Snow
7:21 AM 30.2 °F 23.4 °F 30.2 °F 100% 29.76 in 2.5 mi NW 6.9 mph - N/A Snow Light Snow
7:22 AM 30.2 °F 23.4 °F 30.2 °F 100% 29.81 in 0.5 mi NW 6.9 mph - N/A Fog , Snow Light Snow
7:23 AM 30.2 °F 22.6 °F 30.2 °F 100% 29.76 in 2.0 mi NNW 8.1 mph - N/A Snow Light Snow
7:28 AM 30.2 °F 21.3 °F 30.2 °F 100% 29.76 in 2.5 mi NNW 10.4 mph - N/A Snow Light Snow
7:31 AM 30.2 °F 22.6 °F 30.2 °F 100% 29.76 in 1.0 mi NNW 8.1 mph - N/A Snow Light Snow
7:44 AM 30.2 °F 22.6 °F 30.2 °F 100% 29.76 in 3.0 mi NNW 8.1 mph - N/A Snow Light Snow
7:45 AM 30.2 °F 22.6 °F 30.2 °F 100% 29.76 in 2.5 mi NNW 8.1 mph - N/A Snow Light Snow
7:50 AM 30.2 °F 23.4 °F 30.2 °F 100% 29.76 in 1.0 mi NNW 6.9 mph - N/A Snow Light Snow
7:55 AM 30.0 °F 23.2 °F 30.0 °F 100% 29.77 in 3.0 mi NNW 6.9 mph - 0.00 in Snow Light Snow
7:57 AM 30.2 °F 21.9 °F 30.2 °F 100% 29.77 in 2.5 mi NNW 9.2 mph - N/A Snow Light Snow
8:07 AM 30.2 °F 21.9 °F 30.2 °F 100% 29.78 in 3.0 mi NNW 9.2 mph - N/A Snow Light Snow
8:15 AM 30.2 °F 23.4 °F 30.2 °F 100% 29.74 in 1.0 mi NNW 6.9 mph - N/A Snow Light Snow
8:43 AM 30.2 °F 24.3 °F 30.2 °F 100% 29.78 in 8.0 mi NNW 5.8 mph - N/A Snow Light Snow
8:50 AM 30.2 °F 23.4 °F 30.2 °F 100% 29.78 in 2.0 mi North 6.9 mph - N/A Snow Light Snow
8:55 AM 30.0 °F 23.2 °F 30.0 °F 100% 29.78 in 8.0 mi NNW 6.9 mph - 0.00 in Snow Light Snow
8:58 AM 30.0 °F 22.4 °F 30.0 °F 100% 29.78 in 2.0 mi NNW 8.1 mph - 0.00 in Snow Light Snow
8:59 AM 30.2 °F 21.9 °F 30.2 °F 100% 29.78 in 8.0 mi North 9.2 mph - N/A Snow Light Snow
9:32 AM 30.2 °F 20.8 °F 30.2 °F 100% 29.78 in 9.0 mi North 11.5 mph - N/A   Overcast
9:36 AM 32.0 °F 23.6 °F 30.2 °F 93% 29.78 in 2.0 mi North 10.4 mph - N/A Snow Light Snow
9:37 AM 30.2 °F 20.2 °F 30.2 °F 100% 29.78 in 9.0 mi North 12.7 mph - N/A   Overcast
9:47 AM 30.2 °F 20.8 °F 30.2 °F 100% 29.78 in 10.0 mi North 11.5 mph - N/A   Overcast
9:55 AM 30.6 °F 21.2 °F 30.4 °F 99% 29.78 in 10.0 mi North 11.5 mph - 0.00 in   Overcast
9:58 AM 30.6 °F 21.2 °F 30.4 °F 99% 29.82 in 3.0 mi North 11.5 mph - 0.00 in Snow Light Snow
10:09 AM 30.2 °F 20.2 °F 30.2 °F 100% 29.78 in 10.0 mi North 12.7 mph - N/A   Overcast
10:21 AM 30.2 °F 21.3 °F 30.2 °F 100% 29.78 in 10.0 mi North 10.4 mph - N/A   Overcast
10:33 AM 30.2 °F 20.2 °F 30.2 °F 100% 29.78 in 10.0 mi North 12.7 mph - N/A   Overcast
10:37 AM 32.0 °F 22.1 °F 30.2 °F 93% 29.78 in 3.0 mi North 13.8 mph 18.4 mph N/A Snow Light Snow
10:55 AM 30.4 °F 20.5 °F 28.9 °F 94% 29.79 in 10.0 mi North 12.7 mph 16.1 mph 0.01 in   Overcast
10:59 AM 30.2 °F 21.3 °F 28.4 °F 93% 29.79 in 10.0 mi North 10.4 mph - N/A   Overcast
11:07 AM 30.4 °F 21.5 °F 28.9 °F 94% 29.79 in 5.0 mi North 10.4 mph - 0.01 in Snow Light Snow
11:14 AM 30.2 °F 19.8 °F 28.4 °F 93% 29.80 in 10.0 mi NNW 13.8 mph - N/A   Overcast
11:42 AM 28.4 °F 19.1 °F 26.6 °F 93% 29.81 in 10.0 mi NNW 10.4 mph - N/A   Overcast
11:55 AM 28.9 °F 19.8 °F 26.8 °F 92% 29.81 in 10.0 mi NNW 10.4 mph - 0.01 in   Overcast
11:59 AM 28.4 °F 18.0 °F 26.6 °F 93% 29.81 in 10.0 mi NNW 12.7 mph - N/A   Overcast
12:10 PM 28.4 °F 19.1 °F 26.6 °F 93% 29.81 in 10.0 mi NNW 10.4 mph - N/A   Overcast
12:11 PM 28.4 °F 19.1 °F 26.6 °F 93% 29.81 in 10.0 mi NNW 10.4 mph - N/A   Overcast
12:12 PM 28.4 °F 18.5 °F 26.6 °F 93% 29.81 in 10.0 mi NNW 11.5 mph - N/A   Overcast
12:21 PM 28.4 °F 18.5 °F 26.6 °F 93% 29.81 in 10.0 mi NNW 11.5 mph - N/A   Overcast
12:55 PM 28.0 °F 17.5 °F 25.2 °F 89% 29.82 in 10.0 mi NNW 12.7 mph - 0.00 in   Overcast
1:50 PM 28.4 °F 21.2 °F 24.8 °F 86% 29.82 in 10.0 mi NNW 6.9 mph - N/A   Overcast
1:55 PM 28.6 °F 20.7 °F 24.4 °F 84% 29.82 in 10.0 mi North 8.1 mph - N/A   Overcast
2:27 PM 28.4 °F 19.7 °F 24.8 °F 86% 29.82 in 10.0 mi North 9.2 mph - N/A   Overcast
2:39 PM 28.4 °F 21.2 °F 24.8 °F 86% 29.82 in 10.0 mi NNW 6.9 mph - N/A   Overcast
2:55 PM 28.9 °F 20.4 °F 24.1 °F 82% 29.82 in 10.0 mi North 9.2 mph - 0.00 in   Overcast
2:57 PM 28.4 °F 20.4 °F 24.8 °F 86% 29.82 in 10.0 mi NNW 8.1 mph - N/A   Overcast
3:55 PM 29.1 °F 22.1 °F 23.5 °F 80% 29.83 in 10.0 mi NNW 6.9 mph - 0.00 in   Overcast
4:15 PM 28.4 °F 19.1 °F 23.0 °F 80% 29.84 in 10.0 mi North 10.4 mph - N/A   Overcast
4:23 PM 28.4 °F 19.7 °F 23.0 °F 80% 29.84 in 10.0 mi North 9.2 mph - N/A   Overcast
4:39 PM 28.4 °F 20.4 °F 23.0 °F 80% 29.84 in 10.0 mi North 8.1 mph - N/A   Overcast
4:55 PM 28.4 °F 19.7 °F 23.2 °F 81% 29.85 in 10.0 mi North 9.2 mph - 0.00 in   Overcast
5:02 PM 28.4 °F 19.1 °F 23.0 °F 80% 29.85 in 10.0 mi North 10.4 mph - N/A   Overcast
5:12 PM 28.4 °F 20.4 °F 23.0 °F 80% 29.85 in 10.0 mi North 8.1 mph - N/A   Overcast
5:55 PM 27.3 °F 19.1 °F 23.0 °F 84% 29.87 in 10.0 mi North 8.1 mph - 0.00 in Snow Light Snow
6:03 PM 26.6 °F 19.1 °F 23.0 °F 86% 29.87 in 10.0 mi North 6.9 mph - N/A Snow Light Snow
6:21 PM 26.6 °F 21.2 °F 23.0 °F 86% 29.88 in 10.0 mi North 4.6 mph - N/A Snow Light Snow
6:28 PM 26.6 °F 20.0 °F 23.0 °F 86% 29.88 in 10.0 mi NNW 5.8 mph - N/A Snow Light Snow
6:55 PM 26.4 °F 17.3 °F 22.8 °F 86% 29.88 in 10.0 mi NNW 9.2 mph - 0.00 in Snow Light Snow
7:01 PM 26.6 °F 16.8 °F 23.0 °F 86% 29.88 in 10.0 mi North 10.4 mph - N/A Snow Light Snow
7:55 PM 25.7 °F 18.0 °F 23.7 °F 92% 29.89 in 10.0 mi NNW 6.9 mph - 0.00 in Snow Light Snow
7:57 PM 26.6 °F 20.0 °F 23.0 °F 86% 29.89 in 10.0 mi NNW 5.8 mph - N/A Snow Light Snow
7:59 PM 26.6 °F 19.1 °F 23.0 °F 86% 29.89 in 10.0 mi NNW 6.9 mph - N/A Snow Light Snow
8:00 PM 26.6 °F 20.0 °F 23.0 °F 86% 29.89 in 10.0 mi NNW 5.8 mph - N/A Snow Light Snow
8:21 PM 24.8 °F 15.3 °F 23.0 °F 93% 29.89 in 10.0 mi NNW 9.2 mph - N/A Snow Light Snow
9:35 PM 24.8 °F 15.3 °F 21.2 °F 86% 29.90 in 10.0 mi North 9.2 mph - N/A Snow Light Snow
9:36 PM 24.8 °F 15.3 °F 21.2 °F 86% 29.90 in 10.0 mi North 9.2 mph - N/A Snow Light Snow
9:38 PM 24.8 °F 16.1 °F 21.2 °F 86% 29.90 in 10.0 mi North 8.1 mph - N/A Snow Light Snow
9:55 PM 24.1 °F 15.2 °F 21.6 °F 90% 29.90 in 9.0 mi NW 8.1 mph - 0.00 in Snow Light Snow
10:55 PM 23.7 °F 13.3 °F 21.0 °F 89% 29.90 in 10.0 mi NNW 10.4 mph - 0.00 in   Overcast
11:55 PM 22.8 °F 14.5 °F 20.1 °F 89% 29.89 in 9.0 mi NW 6.9 mph - 0.00 in Snow Light Snow